Wetbulb
30.02 30.46 30.69 30.20 30.13 29.50 24.96 26.78 23.24 26.45 26.66 32.15 34.79 35.70 37.83 40.67 39.02 37.00 35.52 35.32 33.86 34.03 33.72 34.60 34.76 35.34 36.45 36.63 36.89 37.29 37.28 37.52 37.73 38.30 38.84 38.56 37.95 38.36 38.21 38.28 38.30 36.96 36.47 36.83
23.33 29.94 29.89 27.95 30.85 30.56 30.14 30.15 29.22 30.21 30.43 38.11 39.28 40.55 42.22 39.10 37.28 34.42 34.24 34.72 33.00 33.14 33.46 34.47 35.18 35.34 36.30 36.39 36.37 37.33 36.50 36.09 36.69 36.98 37.23 37.21 37.24 37.28 37.98 37.64 38.37 38.44 37.88 37.42
22.59 28.15 28.51 24.69 29.50 30.66 30.39 31.23 32.42 27.92 33.32 38.07 38.42 40.17 41.41 38.18 36.04 33.84 33.98 33.68 32.57 31.96 32.71 34.59 36.11 36.68 36.39 36.61 37.34 36.84 36.55 36.63 36.57 36.31 35.67 35.76 36.23 36.15 35.96 36.26 37.16 37.24 37.60 38.02
25.44 24.94 17.24 29.24 34.89 33.89 32.51 33.47 34.07 34.65 35.97 38.52 38.83 41.13 38.19 37.27 34.26 33.18 33.56 33.34 32.46 33.10 33.82 34.69 36.06 36.42 36.89 37.21 36.80 36.23 35.95 36.01 36.17 35.79 35.33 35.25 34.65 34.57 34.77 35.06 34.59 34.18 33.44 33.52
23.05 24.33 25.53 31.24 33.44 32.69 32.08 34.12 35.17 34.68 36.28 37.96 41.84 39.61 37.78 36.25 34.48 32.95 33.21 33.06 33.44 34.24 34.56 34.95 35.36 36.15 35.98 35.97 36.44 35.90 35.23 35.78 35.78 35.31 35.07 33.83 32.47 32.37 32.69 32.29 32.02 32.15 32.66 32.85
25.99 23.20 20.46 29.33 35.20 39.08 37.99 32.08 37.70 36.44 37.25 40.43 41.14 36.73 38.52 34.96 35.21 34.58 34.73 34.96 34.61 35.25 35.47 35.30 35.67 35.93 35.04 34.96 35.03 34.37 34.77 35.11 35.57 35.53 34.30 32.71 32.40 32.05 32.22 32.25 31.52 31.95 31.31 32.89
24.98 23.79 26.37 32.62 36.86 39.37 32.56 33.02 38.37 39.44 39.76 41.18 39.44 39.27 37.18 35.27 34.47 34.92 34.69 34.63 36.02 35.61 34.74 35.08 35.85 35.46 34.37 34.60 33.78 34.73 34.94 35.11 34.66 34.06 32.68 32.82 32.40 32.04 30.75 28.41 27.68 27.21 26.62 26.77
27.17 25.86 20.31 35.74 38.06 37.07 39.94 40.01 39.25 39.02 39.26 41.54 40.00 37.18 36.34 35.08 34.08 33.90 33.32 34.11 35.66 34.98 34.74 35.73 36.23 35.77 34.23 32.80 35.09 35.58 34.69 34.12 33.52 34.09 34.39 32.04 28.97 27.17 26.83 26.16 24.97 24.17 24.30 24.60
28.60 27.79 35.60 38.21 39.76 42.05 41.74 40.11 39.06 38.25 39.44 41.40 39.26 37.69 37.00 35.27 34.49 34.49 33.59 33.47 34.16 35.24 35.01 35.51 35.86 34.69 33.87 34.59 35.44 34.69 33.29 30.19 27.45 26.66 26.41 26.61 26.10 25.23 24.59 24.61 23.85 23.02 23.09 23.17
33.76 36.89 36.68 39.55 41.40 40.72 40.20 39.41 39.78 39.42 39.65 39.79 39.20 38.49 36.99 35.30 34.37 34.14 33.98 33.47 34.41 34.08 34.41 34.12 35.52 35.57 35.25 35.32 34.38 30.79 26.62 25.33 25.23 25.24 24.34 24.39 25.08 24.98 23.52 22.84 22.54 22.90 23.23 22.63
33.20 36.00 38.74 40.90 41.37 41.08 39.91 39.07 38.28 38.49 39.57 39.64 38.54 37.67 37.33 35.72 35.12 35.31 34.72 34.64 35.50 34.86 34.36 34.25 35.20 34.68 32.65 31.01 28.33 26.28 25.17 24.84 24.41 24.26 24.28 24.60 25.02 24.97 24.06 23.07 24.45 23.73 23.49 24.15
35.94 37.89 36.61 38.82 40.44 41.07 39.42 38.53 38.50 37.46 38.56 38.63 38.21 36.46 37.26 36.62 36.58 35.34 34.03 31.68 33.33 34.03 33.73 33.09 32.82 30.18 28.08 27.92 27.22 25.55 24.14 24.10 24.17 24.08 24.40 24.86 25.47 25.89 31.19 30.93 30.96 30.11 28.86 27.14
36.89 36.14 37.24 39.05 39.34 37.76 37.14 37.29 36.88 36.56 37.81 37.70 36.45 35.73 36.57 35.56 35.35 35.48 31.87 30.93 32.62 32.81 32.43 31.67 28.87 27.28 27.00 26.81 26.44 25.27 24.00 23.84 24.40 22.99 22.29 22.23 21.76 21.79 21.44 24.02 27.94 28.06 28.10 27.73
38.77 37.88 35.53 36.16 36.05 35.82 35.53 35.43 36.48 34.82 36.33 37.34 36.23 34.64 35.88 34.85 35.53 32.82 31.21 31.36 31.34 32.10 30.34 28.41 26.95 26.21 26.19 26.27 25.92 24.12 24.03 26.25 22.19 21.60 21.53 20.95 21.00 20.74 20.84 20.34 19.49 20.06 22.83 25.49
34.52 35.84 36.79 37.82 36.68 34.77 33.39 33.20 32.82 32.91 32.72 33.17 34.54 33.16 32.98 33.41 33.34 31.98 31.93 31.64 31.42 30.93 29.26 26.74 25.87 25.21 25.68 25.60 25.03 23.99 23.38 21.85 21.22 21.20 20.93 21.49 20.66 20.19 20.03 19.39 18.78 18.44 19.27 21.32
33.22 34.17 35.94 35.16 36.28 36.22 33.88 32.77 31.45 31.87 30.87 30.83 31.33 31.40 32.78 34.43 33.39 32.15 30.92 30.71 29.23 28.54 28.56 27.04 25.90 25.27 25.15 25.45 23.90 22.55 23.03 24.23 22.41 21.71 21.42 20.10 19.98 19.63 19.05 18.55 18.19 18.04 17.96 18.33
32.32 32.37 31.68 33.43 34.56 35.16 36.31 35.14 33.42 32.36 31.38 29.72 29.73 30.41 31.33 32.58 31.72 30.40 29.59 30.22 30.17 29.12 28.56 27.51 26.29 25.85 25.69 24.61 23.28 22.11 23.05 24.44 23.86 20.47 20.12 19.78 19.39 18.95 18.72 18.39 18.03 17.86 17.92 19.10
33.28 33.83 34.83 34.96 34.05 33.97 35.03 38.01 36.20 34.18 32.37 32.09 30.73 30.12 30.21 30.13 30.28 28.98 28.46 28.38 28.05 27.55 27.75 27.33 26.10 25.48 24.63 23.44 22.58 22.05 21.87 21.07 19.98 19.40 19.70 19.37 19.00 18.92 18.46 18.05 17.91 17.65 18.06 18.50
35.30 35.25 35.61 36.02 36.57 35.22 35.84 37.61 37.72 35.30 32.85 31.54 29.78 29.21 30.08 30.15 29.89 29.44 28.46 27.80 26.96 25.86 25.91 26.28 28.89 26.43 23.98 24.22 23.63 21.83 20.67 19.40 19.10 19.01 19.21 21.23 19.32 18.24 17.92 17.73 17.85 17.94 17.86 17.84
33.65 34.15 34.56 35.28 37.10 36.73 32.47 32.72 33.53 32.41 31.09 30.00 29.78 28.65 27.92 27.96 28.47 27.95 27.87 27.09 27.74 27.88 26.46 26.73 27.43 24.12 23.34 25.72 26.39 20.32 19.27 18.73 18.10 17.83 17.91 17.48 17.36 17.35 17.41 18.82 19.26 18.14 17.27 17.53
31.11 31.66 31.89 32.09 33.14 35.72 35.81 33.15 31.79 30.72 30.50 30.21 29.25 28.53 28.21 28.30 27.75 27.07 25.38 25.07 25.56 27.98 26.43 29.00 24.73 23.31 23.45 25.93 23.10 19.05 18.37 17.95 17.75 17.12 17.12 17.94 17.00 16.81 16.81 16.65 16.64 16.74 16.50 16.77
29.57 29.77 30.22 30.64 30.01 30.60 33.10 34.51 33.54 31.66 29.75 28.81 28.75 28.10 26.56 24.97 24.20 24.12 25.55 26.01 25.47 30.42 27.39 26.77 24.86 24.93 23.82 28.56 19.36 18.71 18.11 18.00 17.63 16.49 15.76 15.74 16.01 16.15 16.08 15.55 15.21 15.69 15.69 15.26
28.08 28.91 29.17 28.77 28.50 28.57 29.46 29.36 31.17 32.43 31.13 29.58 27.95 26.65 25.71 25.10 24.44 23.67 23.45 25.36 25.70 29.67 26.07 24.81 26.07 28.79 29.42 21.72 19.36 18.71 18.26 17.52 16.93 16.35 15.60 15.05 15.57 14.84 14.58 14.66 14.26 14.46 14.28 14.01
25.89 26.59 27.63 28.06 27.84 27.46 26.22 26.50 25.95 26.33 28.12 29.14 29.15 28.54 27.71 26.29 25.13 25.94 26.25 28.30 28.67 30.08 24.32 24.84 28.26 30.52 30.61 20.54 19.09 18.45 17.99 17.24 16.26 15.34 14.72 19.00 14.31 13.76 13.31 13.52 13.01 13.69 13.28 13.97
21.44 22.11 22.89 25.92 25.28 25.51 25.04 24.82 24.28 24.19 25.02 25.19 25.84 26.95 27.95 27.98 27.24 26.34 26.76 27.16 29.86 29.73 25.08 28.96 30.43 31.12 24.22 20.49 19.01 18.26 17.86 17.40 15.65 14.35 14.65 14.68 14.38 13.41 13.50 12.99 12.59 12.87 12.90 12.83
19.64 20.37 21.82 24.00 24.25 24.20 24.24 25.55 24.87 24.47 24.26 23.66 23.95 24.22 24.41 25.18 25.77 26.36 25.94 27.59 27.28 29.53 23.94 25.58 27.79 28.32 22.14 20.54 19.30 18.49 17.80 17.04 18.51 19.26 16.05 15.39 14.66 13.98 13.46 13.39 13.19 13.00 13.16 12.86
15.87 21.63 16.45 19.70 21.79 21.78 22.04 23.85 26.47 25.44 25.34 23.99 23.32 23.95 23.73 23.75 24.46 25.74 26.62 26.28 26.31 27.32 23.46 24.03 26.61 26.45 22.22 21.05 19.40 18.49 18.04 17.69 18.86 17.71 17.50 16.48 15.45 14.66 14.14 13.52 12.64 12.39 12.44 12.53
MSLP
1017.79 1017.79 1017.88 1017.81 1017.93 1018.55 1018.84 1018.61 1018.41 1017.33 1016.35 1014.58 1014.12 1014.13 1014.17 1014.80 1015.16 1015.56 1015.70 1015.91 1016.35 1016.31 1016.24 1016.12 1016.13 1015.76 1015.42 1015.21 1014.87 1014.70 1014.23 1014.08 1014.16 1013.83 1013.76 1013.60 1013.16 1013.40 1013.63 1013.56 1013.94 1013.66 1014.09 1015.09
1018.13 1017.89 1017.76 1017.73 1017.63 1017.82 1017.87 1017.72 1017.19 1016.75 1015.43 1013.87 1013.57 1013.70 1014.27 1014.91 1015.49 1015.90 1015.92 1016.11 1016.53 1016.61 1016.43 1016.58 1016.65 1016.26 1015.79 1015.68 1015.44 1015.01 1015.20 1015.17 1015.25 1014.96 1014.71 1014.77 1015.00 1014.81 1014.73 1014.84 1015.08 1015.09 1015.23 1015.72
1018.36 1018.03 1017.67 1017.29 1016.00 1016.32 1016.50 1016.18 1015.94 1015.78 1013.90 1013.29 1013.35 1013.85 1014.48 1015.16 1015.63 1015.89 1016.22 1016.50 1016.71 1016.81 1016.86 1016.96 1016.83 1016.82 1016.30 1016.06 1015.93 1015.95 1016.11 1016.14 1016.17 1016.16 1015.86 1015.81 1016.03 1016.03 1016.02 1016.03 1016.34 1016.54 1016.52 1016.64
1018.30 1018.00 1017.20 1014.94 1014.44 1014.48 1014.66 1014.49 1014.59 1014.04 1013.29 1013.20 1013.56 1013.96 1014.71 1015.34 1015.82 1016.24 1016.46 1016.71 1016.89 1017.09 1017.31 1017.27 1017.16 1017.27 1016.77 1016.60 1016.68 1016.74 1016.99 1016.98 1017.00 1017.06 1016.88 1017.15 1017.32 1017.30 1017.29 1017.25 1017.39 1017.98 1018.08 1018.16
1017.90 1017.39 1015.99 1014.18 1013.80 1013.69 1013.67 1013.29 1013.04 1013.36 1012.99 1013.26 1013.52 1014.26 1015.10 1015.72 1016.13 1016.44 1016.72 1017.08 1017.29 1017.42 1017.58 1017.63 1017.49 1017.60 1017.37 1017.39 1017.44 1017.42 1017.55 1017.69 1017.73 1017.92 1017.96 1018.19 1018.18 1018.32 1018.38 1018.50 1018.54 1019.05 1019.37 1019.43
1017.55 1016.96 1015.52 1013.77 1012.84 1012.46 1012.48 1012.66 1012.35 1012.72 1012.86 1013.09 1013.75 1014.55 1015.25 1015.95 1016.38 1016.81 1017.20 1017.41 1017.64 1017.73 1017.83 1017.82 1017.90 1018.16 1018.12 1018.11 1018.03 1018.10 1018.27 1018.34 1018.46 1018.64 1018.72 1019.04 1019.17 1019.16 1019.56 1019.63 1019.68 1020.08 1020.32 1020.65
1016.99 1016.24 1014.68 1013.11 1012.44 1012.33 1012.48 1012.95 1012.23 1012.37 1012.63 1013.06 1013.74 1014.51 1015.17 1016.12 1016.82 1017.31 1017.66 1017.84 1017.96 1018.02 1018.13 1018.17 1018.26 1018.55 1018.68 1018.75 1018.71 1018.94 1019.00 1019.11 1019.33 1019.52 1019.62 1019.82 1019.98 1020.19 1020.43 1020.69 1020.96 1021.19 1021.36 1021.48
1016.33 1015.64 1014.26 1012.52 1012.30 1012.09 1012.15 1012.02 1012.13 1012.31 1012.54 1012.99 1013.64 1014.58 1015.28 1016.19 1017.00 1017.54 1017.84 1018.10 1018.21 1018.24 1018.53 1018.52 1018.65 1018.91 1019.05 1019.24 1019.45 1019.46 1019.52 1019.79 1020.00 1020.13 1020.27 1020.48 1020.53 1020.84 1021.07 1021.31 1021.49 1021.70 1021.80 1021.91
1014.71 1013.92 1012.64 1012.20 1011.98 1011.56 1011.65 1011.95 1012.08 1012.33 1012.52 1013.02 1013.73 1014.43 1015.21 1016.27 1016.98 1017.44 1017.90 1018.26 1018.51 1018.58 1018.70 1018.89 1019.12 1019.28 1019.38 1019.78 1019.91 1020.02 1020.14 1020.42 1020.60 1020.81 1020.97 1021.07 1021.10 1021.31 1021.55 1021.69 1021.77 1021.98 1022.11 1022.27
1014.00 1012.57 1012.42 1011.99 1011.62 1011.68 1011.72 1011.91 1011.96 1012.27 1012.61 1013.05 1013.54 1014.36 1015.14 1015.97 1016.81 1017.46 1017.98 1018.21 1018.46 1018.62 1018.83 1019.17 1019.47 1019.60 1019.75 1020.06 1020.22 1020.31 1020.71 1020.98 1021.30 1021.40 1021.63 1021.72 1021.77 1021.90 1021.99 1022.16 1022.26 1022.39 1022.53 1022.68
1013.44 1012.87 1012.26 1011.86 1011.78 1011.84 1011.78 1011.94 1012.12 1012.39 1012.68 1013.02 1013.53 1014.27 1014.91 1015.62 1016.47 1017.22 1017.67 1018.09 1018.21 1018.48 1018.90 1019.22 1019.58 1019.92 1020.10 1020.34 1020.60 1020.91 1021.29 1021.51 1021.74 1021.98 1022.16 1022.30 1022.37 1022.35 1022.36 1022.49 1022.42 1022.54 1022.79 1022.82
1012.97 1012.79 1012.81 1012.22 1011.92 1012.05 1012.15 1012.23 1012.30 1012.59 1012.91 1013.19 1013.51 1014.11 1014.68 1015.28 1016.04 1016.76 1017.41 1017.80 1018.15 1018.43 1018.79 1019.24 1019.66 1020.13 1020.53 1020.71 1020.85 1021.09 1021.56 1021.87 1022.14 1022.40 1022.62 1022.72 1022.75 1022.79 1022.55 1022.42 1022.49 1022.51 1022.65 1022.69
1012.89 1012.89 1012.81 1012.48 1012.38 1012.57 1012.59 1012.45 1012.46 1012.68 1013.04 1013.36 1013.68 1014.01 1014.54 1015.10 1015.78 1016.40 1017.03 1017.44 1017.88 1018.25 1018.62 1019.09 1019.68 1020.19 1020.65 1020.87 1021.05 1021.37 1021.69 1022.05 1022.40 1022.72 1022.95 1023.10 1023.16 1023.21 1023.16 1023.18 1023.01 1023.00 1022.92 1022.84
1013.32 1013.35 1013.13 1012.79 1012.95 1012.95 1012.89 1012.73 1012.78 1012.95 1013.17 1013.52 1013.78 1014.16 1014.52 1014.93 1015.60 1016.16 1016.48 1017.01 1017.60 1018.12 1018.69 1019.07 1019.58 1020.10 1020.56 1020.87 1021.14 1021.60 1021.93 1022.12 1022.50 1022.78 1022.96 1023.21 1023.40 1023.50 1023.49 1023.48 1023.53 1023.60 1023.54 1023.23
1013.87 1013.95 1013.80 1013.44 1013.25 1013.06 1012.93 1012.97 1013.05 1013.24 1013.50 1013.80 1013.98 1014.26 1014.57 1014.86 1015.32 1015.84 1016.25 1016.80 1017.43 1018.01 1018.57 1019.08 1019.49 1019.99 1020.40 1020.74 1021.14 1021.58 1021.92 1022.26 1022.59 1022.93 1023.25 1023.38 1023.53 1023.56 1023.65 1023.81 1023.89 1023.92 1023.85 1023.57
1014.09 1013.99 1013.67 1013.55 1013.26 1013.04 1013.01 1012.98 1013.15 1013.25 1013.48 1013.74 1013.99 1014.23 1014.42 1014.77 1015.18 1015.66 1016.18 1016.58 1017.06 1017.59 1018.22 1018.88 1019.32 1019.76 1020.25 1020.64 1021.14 1021.61 1021.90 1022.22 1022.70 1023.02 1023.22 1023.40 1023.54 1023.63 1023.76 1023.86 1023.89 1023.89 1023.82 1023.65
1014.50 1014.01 1013.76 1013.50 1013.39 1013.13 1012.91 1012.81 1012.83 1012.88 1013.06 1013.46 1013.73 1014.05 1014.38 1014.78 1015.20 1015.71 1016.06 1016.40 1016.79 1017.34 1017.85 1018.39 1018.90 1019.57 1020.01 1020.46 1020.94 1021.49 1021.93 1022.19 1022.58 1022.93 1023.03 1023.21 1023.34 1023.47 1023.62 1023.73 1023.76 1023.80 1023.82 1023.74
1014.31 1014.01 1013.76 1013.47 1013.15 1012.84 1012.46 1012.21 1012.11 1012.26 1012.52 1012.77 1013.44 1013.98 1014.38 1014.73 1014.96 1015.41 1015.91 1016.42 1016.88 1017.40 1017.81 1018.23 1018.76 1019.31 1019.82 1020.28 1020.80 1021.39 1021.87 1022.22 1022.53 1022.71 1022.97 1023.14 1023.23 1023.38 1023.55 1023.69 1023.79 1023.82 1023.74 1023.62
1014.04 1013.74 1013.44 1013.13 1012.74 1012.46 1012.05 1011.69 1011.54 1011.63 1012.01 1012.45 1013.11 1013.59 1013.97 1014.43 1014.85 1015.42 1015.96 1016.34 1016.80 1017.27 1017.76 1018.24 1018.70 1019.26 1019.74 1020.11 1020.61 1021.20 1021.71 1022.11 1022.38 1022.61 1022.79 1022.86 1023.03 1023.26 1023.41 1023.52 1023.51 1023.48 1023.44 1023.29
1014.26 1013.86 1013.51 1013.13 1012.69 1012.31 1011.95 1011.59 1011.43 1011.65 1011.98 1012.40 1012.96 1013.52 1014.04 1014.47 1014.90 1015.44 1015.88 1016.09 1016.24 1016.48 1017.18 1017.89 1018.46 1019.05 1019.51 1019.85 1020.28 1020.81 1021.33 1021.75 1022.08 1022.34 1022.62 1022.77 1022.85 1023.02 1023.17 1023.21 1023.19 1023.13 1023.10 1022.96
1014.61 1014.27 1013.86 1013.51 1013.08 1012.68 1012.33 1012.10 1012.02 1012.16 1012.38 1012.62 1013.01 1013.42 1013.83 1014.25 1014.74 1015.12 1015.71 1015.96 1016.11 1016.32 1016.75 1017.34 1017.97 1018.60 1019.15 1019.54 1020.01 1020.53 1021.01 1021.48 1021.78 1022.03 1022.34 1022.53 1022.64 1022.75 1022.87 1022.94 1022.95 1022.92 1022.82 1022.65
1015.01 1014.69 1014.35 1013.95 1013.58 1013.23 1012.87 1012.58 1012.50 1012.60 1012.72 1012.95 1013.21 1013.52 1013.95 1014.35 1014.81 1015.15 1015.24 1015.45 1015.74 1016.08 1016.55 1017.06 1017.56 1018.10 1018.66 1019.10 1019.69 1020.12 1020.61 1021.03 1021.38 1021.73 1021.97 1022.18 1022.32 1022.47 1022.60 1022.71 1022.73 1022.70 1022.62 1022.54
1015.43 1015.18 1014.90 1014.57 1014.17 1013.79 1013.41 1013.21 1013.04 1013.06 1013.08 1013.13 1013.31 1013.55 1013.79 1014.07 1014.47 1014.96 1015.05 1015.19 1015.43 1015.81 1016.29 1016.65 1016.98 1017.54 1018.07 1018.75 1019.22 1019.70 1020.19 1020.65 1020.99 1021.29 1021.58 1021.81 1021.93 1022.20 1022.32 1022.35 1022.40 1022.35 1022.24 1022.10
1015.93 1015.72 1015.46 1015.11 1014.67 1014.31 1014.09 1013.92 1013.72 1013.43 1013.24 1013.21 1013.27 1013.41 1013.71 1013.99 1014.22 1014.32 1014.50 1014.49 1014.71 1015.08 1015.81 1016.32 1016.74 1017.13 1017.56 1018.32 1018.83 1019.30 1019.77 1020.17 1020.53 1020.91 1021.16 1021.33 1021.65 1021.86 1021.98 1021.98 1021.96 1021.80 1021.67 1021.47
1016.35 1016.16 1015.87 1015.57 1015.31 1015.17 1014.88 1014.56 1014.18 1013.86 1013.52 1013.35 1013.29 1013.29 1013.41 1013.43 1013.52 1013.58 1014.11 1014.42 1014.47 1014.70 1015.32 1015.68 1016.25 1016.77 1017.41 1018.01 1018.45 1018.89 1019.31 1019.72 1020.11 1020.52 1020.77 1021.07 1021.21 1021.39 1021.45 1021.47 1021.44 1021.37 1021.14 1020.88
1016.88 1016.72 1016.40 1016.00 1015.78 1015.57 1015.26 1014.81 1014.44 1014.05 1013.71 1013.54 1013.38 1013.28 1013.27 1013.28 1013.29 1013.40 1013.63 1013.85 1014.19 1014.45 1015.03 1015.47 1015.76 1016.30 1017.00 1017.49 1017.96 1018.44 1018.93 1019.37 1019.72 1019.86 1020.21 1020.49 1020.70 1020.82 1020.86 1020.87 1020.86 1020.72 1020.54 1020.31
1017.04 1016.93 1016.67 1016.36 1016.05 1015.87 1015.52 1015.06 1014.63 1014.30 1014.05 1013.83 1013.62 1013.31 1013.23 1013.19 1013.18 1013.25 1013.44 1013.70 1013.93 1014.18 1014.71 1015.12 1015.52 1015.88 1016.53 1017.16 1017.60 1017.98 1018.39 1018.84 1019.22 1019.42 1019.68 1019.93 1020.14 1020.28 1020.30 1020.26 1020.19 1020.02 1019.88 1019.73
Wind_Speed
1 1 3 3 4 7 7 5 7 3 7 7 7 7 7 3 4 5 6 6 6 7 7 9 9 8 9 10 11 9 11 11 10 10 9 9 10 10 10 11 9 13 14 13
3 0 5 4 7 10 9 5 10 7 17 13 11 6 2 3 1 2 3 5 6 7 8 7 7 7 9 10 9 11 10 10 9 9 9 10 10 10 10 11 11 12 13 13
3 3 3 5 10 14 6 5 10 8 11 3 3 5 1 1 1 2 3 4 6 6 5 5 6 6 8 8 9 10 9 10 10 9 9 9 9 10 10 11 11 11 12 13
2 3 1 5 3 8 13 6 12 7 8 5 4 1 3 2 1 1 2 4 5 5 5 4 4 5 7 8 8 9 8 9 8 8 10 10 10 10 11 10 12 9 10 11
2 2 6 1 2 6 7 2 8 13 12 6 2 2 1 2 2 3 4 3 3 3 3 4 7 6 7 8 7 7 8 7 7 7 8 8 8 9 8 9 9 8 7 8
1 2 4 4 1 2 3 1 2 5 6 3 4 1 2 3 3 4 4 4 3 3 4 4 7 6 7 7 7 8 8 7 8 7 8 9 8 9 8 9 10 8 9 8
3 3 6 7 6 1 2 4 2 3 4 4 3 1 6 6 5 4 4 3 3 5 3 4 6 6 7 6 8 6 7 8 8 7 8 7 8 8 9 8 8 9 9 6
4 4 7 4 1 3 1 1 2 3 4 4 5 7 7 6 6 5 5 4 4 5 4 5 6 5 7 8 5 6 8 8 8 8 7 6 7 7 8 7 8 7 7 6
8 7 5 2 3 2 2 5 3 3 3 5 7 6 9 7 7 6 5 5 5 4 5 5 6 6 8 5 5 6 9 8 8 8 7 6 7 7 5 5 5 5 4 4
1 2 6 8 4 4 4 5 2 3 3 6 6 8 8 9 8 8 6 7 7 6 5 6 5 5 6 5 6 8 9 8 6 7 7 6 5 4 4 4 4 4 4 3
4 7 6 6 3 3 2 2 2 2 3 6 7 9 9 9 9 8 9 7 7 8 7 7 6 6 5 6 7 8 7 6 6 5 6 5 4 4 4 2 3 3 2 2
4 3 1 5 2 4 4 4 5 4 2 3 6 8 8 9 9 9 8 7 6 8 8 8 7 6 4 5 6 7 7 5 4 4 3 4 4 5 8 8 8 6 4 2
4 2 5 8 7 4 5 4 3 4 4 4 4 6 9 8 10 12 8 8 8 8 7 8 7 6 4 5 6 5 6 5 4 4 3 3 2 2 2 3 6 7 6 5
1 5 2 2 2 8 5 3 2 1 1 3 5 5 8 9 10 10 11 9 8 8 7 7 6 6 5 5 6 6 5 9 4 3 3 3 2 2 2 1 1 2 4 4
3 3 5 9 6 6 2 1 2 3 2 2 4 6 8 10 11 10 8 9 9 8 8 7 7 6 5 6 7 6 5 4 4 3 3 4 3 3 2 2 1 0 2 2
6 6 7 3 6 5 4 4 4 5 4 3 5 7 7 8 8 9 8 9 11 11 9 8 7 6 6 7 7 5 4 9 6 4 4 3 3 2 2 1 0 0 2 2
4 5 5 5 5 7 7 5 6 5 4 6 7 6 7 8 8 8 8 8 6 6 8 9 8 8 7 7 7 4 4 4 9 4 3 3 2 2 1 1 1 1 2 3
5 6 7 8 9 9 9 9 7 7 7 7 6 7 7 8 8 8 8 5 5 5 6 6 8 8 7 7 7 5 5 4 4 3 3 3 2 2 1 1 2 3 2 3
5 6 6 7 7 7 8 8 7 6 6 7 8 9 8 7 7 7 7 8 8 8 6 7 14 11 8 9 9 5 5 5 4 3 3 3 2 1 2 2 3 3 3 4
5 6 7 8 8 5 6 4 1 3 4 6 6 6 6 5 7 7 7 9 8 4 10 10 11 8 8 11 13 5 5 5 4 3 3 3 2 2 3 4 4 3 3 4
6 6 7 7 7 7 6 4 2 3 3 4 5 6 7 7 7 8 8 7 6 8 11 17 10 7 6 9 8 5 5 5 4 4 3 3 3 3 3 3 3 3 4 4
5 6 7 8 6 5 5 4 3 2 1 2 3 4 5 5 5 4 4 5 5 15 9 8 7 13 9 15 6 6 5 5 4 3 3 3 3 3 3 3 4 4 4 5
4 5 5 7 7 6 5 6 4 1 2 2 3 4 4 4 4 5 6 6 5 12 6 6 12 19 19 7 6 6 5 5 4 4 4 3 3 3 3 4 4 4 5 5
4 4 4 6 5 5 7 7 6 5 3 3 4 5 4 3 2 4 2 9 14 15 8 8 14 20 18 6 6 5 5 5 4 4 4 6 3 3 4 4 5 5 5 7
3 4 3 3 4 4 5 5 4 3 4 3 3 4 5 4 5 4 6 4 12 13 7 15 19 20 7 6 6 5 5 4 4 4 4 4 4 4 4 4 5 5 5 6
3 3 3 4 2 3 4 4 4 4 4 4 3 3 3 3 3 3 5 8 6 11 5 6 8 9 7 7 6 6 5 4 5 5 5 4 4 4 4 5 5 5 5 6
2 4 2 4 3 4 4 4 4 4 5 4 4 4 3 3 4 4 6 4 5 6 6 6 7 9 7 7 6 6 5 4 6 4 4 4 4 4 4 5 5 5 5 5
Wind_Direction
265 189 179 192 166 187 199 186 174 246 222 263 277 293 305 112 23 4 358 5 3 7 8 18 3 18 28 27 28 26 37 43 36 47 49 55 71 77 76 82 84 92 94 90
339 81 222 245 219 204 222 235 258 251 285 268 276 282 172 85 17 313 14 6 12 14 17 9 351 15 34 33 27 40 41 37 36 48 61 57 55 61 78 79 84 95 94 93
272 349 319 288 223 197 196 206 205 199 231 331 318 329 40 139 7 4 18 28 23 11 15 358 6 14 46 47 42 45 44 42 40 41 52 60 68 75 73 80 80 75 79 88
253 359 262 237 160 181 207 223 216 262 264 258 301 35 124 101 25 18 30 36 36 26 20 16 32 36 59 58 56 59 47 48 46 49 59 59 61 61 63 67 72 72 74 77
131 255 287 260 177 150 183 281 206 226 259 275 181 135 170 106 92 78 69 72 59 51 28 24 45 49 62 65 62 63 64 59 66 64 68 65 71 69 67 74 72 66 65 71
180 243 233 247 201 181 207 331 220 193 237 228 161 312 227 145 118 98 84 72 81 68 55 47 46 55 69 66 70 63 62 63 65 66 72 73 67 66 65 67 66 65 61 63
234 265 283 249 255 223 107 217 210 211 237 230 201 184 130 131 100 92 92 95 96 87 78 62 70 88 81 69 64 59 68 68 68 67 69 72 76 69 76 85 95 94 92 74
197 217 270 199 69 164 204 254 231 241 232 221 141 144 135 133 134 120 101 87 97 103 83 77 89 96 90 73 75 78 81 76 72 71 73 75 80 78 88 103 100 93 91 75
178 212 236 226 273 306 162 229 231 222 228 181 154 169 151 151 138 127 134 134 118 111 92 75 91 109 96 95 94 91 88 80 72 70 68 71 86 87 84 76 78 72 74 71
47 248 235 256 268 243 224 228 225 225 205 175 171 155 151 146 144 146 151 148 146 134 106 103 104 94 90 109 114 102 96 91 87 90 85 75 78 84 92 89 88 87 86 80
254 288 286 298 275 309 315 226 249 236 207 205 162 165 160 150 154 159 153 162 155 142 135 125 117 112 114 117 113 106 102 100 94 90 93 91 81 94 92 78 111 100 91 101
215 177 231 254 187 342 287 266 251 224 217 206 172 161 161 155 159 158 163 153 148 144 139 140 136 129 131 133 128 122 117 116 120 114 107 102 100 74 79 88 78 92 119 118
223 193 226 265 286 13 314 309 265 228 232 199 182 156 164 155 161 160 157 159 161 162 154 147 142 146 157 148 135 132 131 141 136 132 137 143 110 109 137 31 64 57 47 33
34 326 245 28 300 319 293 311 356 6 256 216 176 157 161 156 159 164 170 175 161 157 159 155 153 162 164 152 136 135 148 148 141 138 117 110 128 132 128 96 51 355 355 13
59 345 276 287 294 288 275 285 261 266 245 199 180 172 164 162 166 173 168 165 163 162 165 164 161 168 162 151 145 146 141 139 130 123 141 148 142 126 108 118 136 280 316 343
323 305 287 307 318 305 262 256 244 254 218 206 194 185 181 173 163 163 165 163 163 180 177 175 175 161 156 151 144 140 139 147 151 154 150 147 146 140 150 153 141 326 310 306
300 312 326 319 311 297 282 253 235 233 205 201 205 180 161 156 155 166 177 176 174 163 170 169 172 157 157 154 152 147 150 159 166 158 158 154 152 151 161 196 271 293 290 289
244 253 254 262 275 281 279 263 230 216 209 195 168 166 165 173 182 171 162 147 143 146 170 167 154 155 158 156 152 153 159 159 159 159 153 155 164 164 194 251 274 282 287 290
327 322 316 301 289 270 263 260 237 208 176 162 160 182 182 179 163 161 156 169 174 176 189 156 168 161 164 170 158 155 157 158 157 155 159 165 152 192 225 245 262 274 290 299
350 341 344 341 340 336 326 335 329 149 149 148 151 153 162 159 154 156 169 194 197 175 150 164 165 166 169 177 167 158 159 160 159 160 166 189 202 224 239 262 272 279 290 291
352 345 354 353 343 350 5 7 59 122 139 148 165 180 181 174 177 169 178 194 189 166 164 170 170 170 169 164 162 154 153 158 166 171 189 204 226 235 247 257 271 284 291 289
348 355 351 350 348 342 352 10 38 61 120 182 178 167 167 176 172 186 210 198 163 177 166 168 174 176 175 169 157 157 160 165 170 172 193 208 220 240 257 265 270 281 283 286
343 349 345 352 344 329 359 19 6 336 261 224 215 196 194 190 173 179 214 203 170 182 174 176 179 181 182 160 161 160 163 172 182 193 206 211 218 231 245 259 264 266 276 281
346 351 343 338 336 13 12 348 339 328 291 262 221 197 177 190 218 222 259 192 180 177 178 179 187 186 175 158 161 165 173 181 187 198 208 222 215 229 242 252 265 267 267 280
345 318 314 344 7 358 332 321 318 345 342 306 269 238 211 208 206 181 183 195 196 179 176 191 190 191 166 163 167 175 182 183 189 195 201 212 224 232 243 249 251 263 263 261
346 334 325 335 335 337 328 329 330 329 334 330 308 264 244 225 207 180 185 185 188 186 173 183 185 183 163 170 174 177 178 185 199 200 201 214 224 234 243 248 255 261 268 270
328 346 340 336 341 340 326 323 328 332 331 313 287 277 257 236 209 183 191 186 185 174 167 173 183 175 166 175 174 175 174 180 201 203 209 214 222 237 244 248 255 260 266 271